Location: Atlantic Beach
(40.5890°N, 73.7290°W)
Time: 06:40:21
(UTC+00:00)

N. Korean satellite - Pass Details

Date: 25 January 2021
Orbit: 451 x 502 km, 97.2° (Epoch: 04 March)

Event Time Altitude Azimuth Distance (km) Brightness Sun altitude
Rises 11:00:12 0° 359° (N) 2,505 10.0 -13.4°
Reaches altitude 10° 11:02:28 10° 347° (NNW) 1,616 8.9 -13.0°
Maximum altitude 11:05:24 26° 289° (WNW) 932 7.4 -12.5°
Drops below altitude 10° 11:08:18 10° 231° (SW) 1,588 8.8 -11.9°
Sets 11:10:30 0° 218° (SW) 2,451 9.9 -11.5°
